[[{"header":{"parameterUnit":"m.s-1","parameterCategory":1,"la1":30.2991,"la2":30.254,"lo1":-89.0895,"lo2":-89.0444,"dy":0.0017,"dx":0.0017,"nx":28,"ny":28,"refTime":"2023-08-03T09:00:00:Z","depth":0,"parameterNumber":2,"parameterNumberName":"U-component_of_WINDS"},"data":[0,0,0,0,0,0,0,0,0,0,0,0,0,0,0,0,0,0,0,0,0,0,0,0,0,0,0,0,0,0,0,0,0,0,0,0,0,0,0,0,0,0,0,0,0,0,0,0,0,0,0,0,0,0,0,0,0,0,2.6009,2.6011,0,2.6164,2.6165,2.6167,2.6121,2.6118,2.6115,2.6112,2.6278,2.6285,2.6293,0,0,0,0,0,0,0,0,0,0,0,0,0,2.5682,2.5688,2.6009,2.6011,2.6013,2.6163,2.6166,2.6168,2.6122,2.6118,2.6114,2.611,2.6276,2.6284,2.6293,0,0,0,0,0,0,0,0,0,0,0,0,0,2.5829,2.569,2.6009,2.6008,2.601,2.6163,2.6166,2.6168,2.6123,2.6118,2.6113,2.6109,2.6273,2.6284,2.6295,2.646,0,0,2.6329,2.6334,0,0,0,0,0,0,0,0,2.5821,2.5841,2.6006,2.6008,2.601,2.6118,2.6111,2.6267,2.6124,2.608,2.6112,2.6106,2.6229,2.6244,2.6284,2.6468,2.6475,2.633,2.6336,2.6341,2.6344,0,0,0,0,0,0,0,2.5811,2.5834,2.607,2.6009,2.6011,2.6003,2.6018,2.614,2.618,2.6084,2.6081,2.6099,2.623,2.6273,2.6287,2.6478,2.6329,2.6339,2.6346,2.635,2.6807,2.6812,0,0,0,0,0,0,2.5798,2.5826,2.6066,2.6075,2.5901,2.6012,2.603,2.6089,2.6179,2.6188,2.6103,2.6096,2.6256,2.6274,2.6293,2.6493,2.6341,2.6352,2.6358,2.6801,2.6808,2.6814,0,0,0,0,0,0,2.5791,2.582,2.6059,2.595,2.598,2.6023,2.609,2.6094,2.6137,2.6193,2.6201,2.614,2.6253,2.6277,2.6419,2.6498,2.6357,2.6367,2.6795,2.6803,2.6811,2.6894,0,0,0,0,0,0,2.5782,2.5818,2.5879,2.5951,2.5986,2.618,2.6094,2.6101,2.6156,2.6149,2.623,2.6239,2.6251,2.6402,2.643,2.6511,2.6375,2.6788,2.6799,2.6808,2.6884,2.6904,2.6921,0,0,0,0,0,2.577,2.5898,2.5883,2.5912,2.6063,2.6185,2.6205,2.6214,2.6162,2.6226,2.6262,2.6236,2.6485,2.6417,2.6448,2.6533,2.6783,2.6796,2.6807,2.6876,2.69,2.692,0,0,0,0,0,0,2.5837,2.5908,2.5891,2.6045,2.6109,2.6177,2.6257,2.624,2.6321,2.6312,2.6323,2.6342,2.6486,2.6524,2.6447,2.6699,2.6627,2.6646,2.6668,2.6691,2.6709,2.6697,2.6385,0,0,0,0,0,2.5869,2.5959,2.6017,2.6148,2.6181,2.6214,2.6267,2.6269,2.6337,2.6364,2.641,2.6479,2.6573,2.6634,2.6724,2.689,2.6907,2.6964,2.6982,2.6996,2.7013,2.7104,2.7129,2.6854,2.6854,2.6854,0,0,2.5937,2.5987,2.6044,2.6163,2.6212,2.6308,2.6237,2.6341,2.6413,2.6381,2.6516,2.6553,2.6631,2.6785,2.6855,2.6821,2.7093,2.7012,2.7023,2.7032,2.7119,2.7145,2.7168,2.6862,2.6861,2.6859,0,0,2.6109,2.6156,2.627,2.6321,2.6396,2.6417,2.6444,2.6515,2.6537,2.6673,2.6651,2.6738,2.6899,2.6955,2.7004,2.7199,2.7178,2.7228,2.7323,2.7411,2.7433,2.7452,2.7521,2.7546,2.7244,2.7244,2.7244,0,2.6185,2.6326,2.6331,2.6437,2.6491,2.6464,2.658,2.663,2.6732,2.6771,2.673,2.6931,2.6982,2.7149,2.7196,2.7237,2.727,2.7218,2.7429,2.7448,2.7466,2.7533,2.7559,2.725,2.7249,2.7248,2.7248,0,2.6415,2.6514,2.6597,2.6693,2.6756,2.6867,2.6891,2.6955,2.6952,2.6978,2.7117,2.7177,2.7277,2.7317,2.7317,2.7485,2.7461,2.7425,2.7353,2.7498,2.756,2.7586,2.7257,2.7255,2.7254,2.7252,0,0,2.6633,2.673,2.6761,2.6804,2.6886,2.6963,2.7074,2.7169,2.7224,2.7296,2.739,2.7526,2.7493,2.7549,2.7555,2.7632,2.7782,2.7587,2.7589,2.7621,2.7972,2.7998,2.8027,2.7769,2.7774,2.7778,2.7965,0,2.6813,2.7004,2.7012,2.7188,2.7279,2.7255,2.7352,2.7413,2.7441,2.7524,2.7556,2.7652,2.7601,2.7635,2.7711,2.7748,2.7853,2.7735,2.7858,2.7862,2.7838,2.806,2.8088,2.8262,2.799,2.7994,2.7997,0,2.7047,2.7123,2.7306,2.7374,2.7413,2.7499,2.7588,2.7668,2.7738,2.7753,2.7815,2.781,2.7925,2.7849,2.8009,2.7928,2.7979,2.8005,2.8013,2.8024,2.7938,2.8077,2.8317,2.8343,2.8035,2.8032,2.803,0,2.7187,2.7336,2.7465,2.7503,2.7585,2.7647,2.7685,2.7749,2.7807,2.7885,2.7923,2.8015,2.8066,2.8138,2.8158,2.8101,2.8318,2.8243,2.8334,2.8334,2.8381,2.8377,2.8632,2.8415,2.8414,2.8414,2.8413,0,2.7386,2.7499,2.7528,2.7608,2.7735,2.7745,2.7871,2.7905,2.7963,2.805,2.8036,2.8119,2.814,2.8227,2.8244,2.8374,2.8398,2.8414,2.8417,2.8415,2.8412,2.8448,2.8436,2.8421,2.8419,2.8418,2.8417,0,2.7563,2.7587,2.7726,2.7793,2.7812,2.7903,2.7961,2.8038,2.8064,2.8174,2.8201,2.8242,2.8344,2.8371,2.8494,2.8505,2.8658,2.865,2.8634,2.8633,2.8722,2.8713,2.9008,2.9047,2.8805,2.8807,2.8809,0,2.7688,2.7774,2.7849,2.7905,2.7945,2.8036,2.8094,2.8108,2.8169,2.8256,2.8323,2.8423,2.8503,2.8667,2.871,2.8804,2.8798,2.8895,2.8812,2.8807,2.8798,2.8793,2.8801,2.891,2.8913,2.8915,2.8916,0,2.7906,2.7914,2.7996,2.8084,2.8152,2.8223,2.829,2.8337,2.8361,2.8431,2.8533,2.8595,2.872,2.8819,2.8914,2.8955,2.8941,2.8942,2.8968,2.8966,2.8952,2.896,2.8676,2.8935,2.8933,2.8932,2.8931,2.893,2.8061,2.8136,2.8201,2.8294,2.8345,2.8408,2.8484,2.8518,2.8603,2.8703,2.8708,2.8819,2.8889,2.9014,2.906,2.9149,2.912,2.9158,2.9168,2.9176,2.9184,2.8939,2.9167,2.9166,2.9166,2.9166,2.9165,0,2.8278,2.8318,2.8404,2.8497,2.857,2.8548,2.8621,2.8684,2.8782,2.8847,2.8925,2.9044,2.914,2.919,2.9286,2.9348,2.9344,2.9373,2.9368,2.9378,2.9204,2.9172,2.9375,2.9375,2.9375,2.9375,2.9374,2.9374,2.84,2.8526,2.8542,2.8694,2.8734,2.8841,2.8885,2.8944,2.8995,2.9127,2.9206,2.9237,2.9297,2.9397,2.9485,2.9497,2.9533,2.9566,2.9575,2.9412,2.939,2.937,2.9339,2.9574,2.9574,2.9741,2.9742,2.9744]},{"header":{"parameterUnit":"m.s-1","parameterCategory":1,"la1":30.2991,"la2":30.254,"lo1":-89.0895,"lo2":-89.0444,"dy":0.0017,"dx":0.0017,"nx":28,"ny":28,"refTime":"2023-08-03T09:00:00:Z","depth":0,"parameterNumber":3,"parameterNumberName":"V-component_of_WINDS"},"data":[0,0,0,0,0,0,0,0,0,0,0,0,0,0,0,0,0,0,0,0,0,0,0,0,0,0,0,0,0,0,0,0,0,0,0,0,0,0,0,0,0,0,0,0,0,0,0,0,0,0,0,0,0,0,0,0,0,0,3.8013,3.8014,0,3.8163,3.8165,3.8167,3.8182,3.818,3.8179,3.8177,3.8327,3.8332,3.8338,0,0,0,0,0,0,0,0,0,0,0,0,0,3.7729,3.7734,3.8012,3.8014,3.8016,3.8163,3.8165,3.8167,3.8182,3.818,3.8178,3.8177,3.8325,3.8332,3.8338,0,0,0,0,0,0,0,0,0,0,0,0,0,3.7863,3.7736,3.8012,3.8042,3.8046,3.8163,3.8165,3.8168,3.8183,3.818,3.8178,3.8176,3.8323,3.8331,3.8339,3.8435,0,0,3.8364,3.8367,0,0,0,0,0,0,0,0,3.7855,3.7873,3.8035,3.804,3.8045,3.8152,3.812,3.8257,3.8183,3.813,3.8177,3.8175,3.827,3.8282,3.8316,3.8442,3.8449,3.8364,3.8369,3.8373,3.8375,0,0,0,0,0,0,0,3.7846,3.7867,3.8072,3.8038,3.8043,3.8044,3.8061,3.8146,3.8211,3.8135,3.8136,3.8154,3.8272,3.8308,3.8319,3.8451,3.8364,3.8371,3.8376,3.838,3.8657,3.8659,0,0,0,0,0,0,3.7832,3.7859,3.8067,3.8077,3.7942,3.8051,3.807,3.8119,3.821,3.8222,3.8156,3.8154,3.8295,3.831,3.8325,3.8439,3.8373,3.838,3.8385,3.8654,3.8658,3.866,0,0,0,0,0,0,3.7826,3.7851,3.8061,3.7968,3.7995,3.8059,3.8114,3.8124,3.8159,3.8227,3.8237,3.8181,3.8294,3.8313,3.8406,3.8444,3.8384,3.8392,3.8652,3.8655,3.8659,3.8671,0,0,0,0,0,0,3.7818,3.7848,3.7888,3.7969,3.8,3.8143,3.8117,3.8128,3.8174,3.8173,3.8253,3.8264,3.8293,3.8394,3.8415,3.8455,3.8398,3.8648,3.8653,3.8658,3.8668,3.8675,3.8681,0,0,0,0,0,3.7808,3.7886,3.789,3.7915,3.8052,3.8146,3.8163,3.8197,3.8177,3.8215,3.8257,3.8261,3.8437,3.8404,3.8427,3.847,3.8646,3.8652,3.8657,3.8665,3.8673,3.8681,0,0,0,0,0,0,3.7808,3.7898,3.7903,3.8011,3.807,3.8148,3.8198,3.8206,3.8272,3.8268,3.8306,3.8324,3.8414,3.8452,3.8413,3.8564,3.8539,3.855,3.8537,3.8546,3.8552,3.854,3.8405,0,0,0,0,0,3.7821,3.7892,3.7965,3.8053,3.8083,3.8135,3.8177,3.8198,3.8261,3.8286,3.8335,3.8394,3.8462,3.8506,3.8573,3.8673,3.8687,3.8713,3.872,3.8725,3.8733,3.8782,3.8793,3.8679,3.8679,3.8678,0,0,3.7847,3.7905,3.7948,3.8054,3.8103,3.8172,3.8156,3.8232,3.8282,3.8297,3.8387,3.8425,3.8493,3.8588,3.8633,3.8622,3.8768,3.8732,3.8736,3.8741,3.8789,3.88,3.881,3.8682,3.8682,3.8681,0,0,3.7931,3.7984,3.806,3.8108,3.8182,3.8215,3.8233,3.8309,3.8334,3.8426,3.8436,3.8495,3.8614,3.866,3.8699,3.8793,3.8797,3.8813,3.8848,3.8896,3.8905,3.8913,3.8942,3.8952,3.8821,3.8822,3.8822,0,3.7954,3.8062,3.8097,3.8171,3.8215,3.8231,3.8305,3.835,3.8441,3.847,3.8457,3.8601,3.8649,3.8752,3.8774,3.8807,3.8825,3.8804,3.8901,3.8909,3.8917,3.8945,3.8957,3.8823,3.8823,3.8823,3.8822,0,3.8084,3.8158,3.821,3.8297,3.8347,3.8421,3.8464,3.8509,3.8524,3.8558,3.8647,3.8703,3.8779,3.8806,3.8822,3.891,3.89,3.8894,3.8869,3.8929,3.8955,3.8967,3.8825,3.8824,3.8824,3.8823,0,0,3.8174,3.8276,3.8295,3.8332,3.8412,3.8468,3.854,3.8614,3.865,3.8712,3.877,3.8866,3.8859,3.8903,3.8924,3.8966,3.903,3.8953,3.8955,3.8962,3.9125,3.9127,3.9139,3.9034,3.9036,3.9038,3.9118,0,3.8263,3.8394,3.8425,3.8536,3.8601,3.8614,3.8676,3.873,3.8762,3.8819,3.8854,3.892,3.8908,3.8933,3.8976,3.9014,3.9063,3.9009,3.9084,3.9086,3.9064,3.9154,3.9159,3.9231,3.9129,3.9131,3.9132,0,3.8386,3.8448,3.8565,3.8631,3.866,3.8715,3.8783,3.8839,3.8898,3.8918,3.8964,3.8979,3.905,3.9022,3.9117,3.9079,3.9111,3.9133,3.9137,3.9144,3.9111,3.916,3.9256,3.9265,3.915,3.9148,3.9147,0,3.8434,3.8548,3.8631,3.8663,3.8744,3.8781,3.8816,3.8873,3.8913,3.8972,3.8997,3.9063,3.9098,3.9146,3.9177,3.9155,3.9267,3.9243,3.9282,3.9281,3.9304,3.9302,3.9404,3.933,3.9329,3.9329,3.9329,0,3.8529,3.8599,3.8653,3.8704,3.878,3.8814,3.8887,3.8922,3.8971,3.9026,3.9042,3.9092,3.9131,3.9185,3.9209,3.9281,3.9297,3.9312,3.9317,3.9309,3.9307,3.933,3.9324,3.9332,3.9332,3.9331,3.933,0,3.8596,3.8636,3.8726,3.8794,3.8812,3.8865,3.8921,3.8969,3.9,3.9068,3.9086,3.9134,3.9198,3.9233,3.9314,3.933,3.9409,3.9413,3.9389,3.9391,3.9426,3.9421,3.9544,3.956,3.9478,3.9478,3.9479,0,3.8653,3.8706,3.8779,3.8817,3.8852,3.8914,3.8955,3.8989,3.903,3.9098,3.9136,3.9201,3.9255,3.9356,3.9396,3.9456,3.9459,3.9498,3.9469,3.9457,3.9455,3.9451,3.9454,3.9503,3.9503,3.9504,3.9505,0,3.8748,3.8763,3.8823,3.8888,3.8936,3.8989,3.9041,3.9071,3.9111,3.9156,3.9223,3.9264,3.9345,3.9408,3.947,3.9502,3.9509,3.9513,3.9525,3.9516,3.9499,3.9505,3.94,3.951,3.951,3.9509,3.9509,3.9509,3.8809,3.8855,3.8912,3.8976,3.9018,3.9065,3.9112,3.9147,3.9203,3.9273,3.9288,3.9356,3.9408,3.9492,3.9526,3.9577,3.9569,3.9587,3.9591,3.9594,3.9593,3.9492,3.9589,3.9589,3.9589,3.9588,3.9588,0,3.8901,3.8938,3.8996,3.9068,3.9116,3.9119,3.9175,3.9215,3.9276,3.9324,3.9376,3.9448,3.9508,3.9551,3.9611,3.9643,3.9647,3.9657,3.9654,3.966,3.9599,3.9581,3.9653,3.9653,3.9653,3.9653,3.9653,3.9653,3.8955,3.9031,3.9053,3.9148,3.9184,3.9252,3.9282,3.9324,3.9362,3.9443,3.9493,3.9521,3.9565,3.9628,3.9681,3.9691,3.9711,3.972,3.9731,3.9672,3.9665,3.9659,3.9642,3.9725,3.9725,3.9787,3.9788,3.9788]}]]